Location: Wavehorne
(51.0500°N, 0.8333°E)
Time: 19:54:54
(UTC+00:00)

Cosmos 1151 Rocket - Pass Details

Date: 20 June 2021
Orbit: 592 x 615 km, 82.5° (Epoch: 02 August)

Event Time Altitude Azimuth Distance (km) Brightness Sun altitude
Rises 02:47:03 0° 346° (NNW) 2,850 7.1 -6.8°
Reaches altitude 10° 02:49:17 10° 343° (NNW) 1,941 6.1 -6.6°
Maximum altitude 02:53:30 60° 264° (W) 687 3.1 -6.1°
Drops below altitude 10° 02:57:40 10° 185° (S) 1,921 5.1 -5.7°
Sets 02:59:53 0° 182° (S) 2,818 6.0 -5.5°
Enters shadow 02:59:57 - 182° (S) 2,846 6.0 -5.5°
